Wind_Speed
42 48 49 41 42 41 42 28 25 30 31 34 40 32 15 28 38 34 33 26 34 30 37 34 33 58 73 76 59 61 62 68 75 77 72 69 69 69 69 62 61 66 66 69
49 46 44 37 36 43 41 30 25 26 32 30 36 30 23 15 30 37 38 40 37 33 27 24 21 32 51 65 61 60 62 63 61 63 70 71 69 67 70 67 67 62 67 70
49 51 43 32 38 45 42 34 25 24 31 29 37 32 30 20 14 28 33 35 30 24 17 17 16 22 35 51 57 55 59 64 65 63 62 63 63 61 59 62 69 68 69 70
48 50 43 38 40 45 34 34 27 24 29 27 33 31 31 23 14 11 21 26 24 21 15 11 11 14 19 29 45 58 64 65 61 61 58 62 61 67 67 64 62 66 67 72
54 55 45 39 42 40 33 33 31 24 27 28 29 27 28 28 18 18 16 23 23 24 15 11 12 11 16 17 27 33 39 53 62 60 62 62 66 68 65 67 68 67 65 65
56 56 48 41 44 42 42 37 40 27 27 30 27 25 25 23 17 18 13 13 25 24 19 19 18 17 20 19 16 18 24 31 38 40 44 45 49 50 53 54 55 58 66 66
61 57 54 50 45 46 48 43 39 35 28 25 28 22 16 19 20 18 17 10 18 26 26 22 22 24 25 23 25 26 27 28 27 29 33 35 39 41 44 45 48 50 53 58
65 58 58 57 55 55 53 51 41 39 28 25 27 18 17 13 13 11 11 16 12 15 32 27 28 27 29 33 29 32 34 34 32 37 41 42 43 43 46 51 50 52 56 61
71 65 67 66 65 62 56 52 49 39 30 26 25 20 22 15 7 13 13 11 10 14 15 22 31 39 40 37 36 36 36 39 39 41 43 44 46 46 51 54 55 59 62 64
77 73 69 68 69 65 62 59 54 40 38 28 26 22 24 19 15 8 6 11 8 4 6 13 19 22 33 39 42 46 43 46 48 48 47 47 49 53 54 55 49 44 40 36
84 80 76 75 75 69 64 58 45 40 40 34 28 25 25 19 16 13 10 10 11 9 14 9 17 21 15 27 31 31 40 50 52 53 57 57 57 55 43 39 35 37 31 29
92 91 81 70 71 67 68 61 49 44 43 40 31 28 27 25 21 17 14 15 14 15 13 13 13 17 19 13 24 32 29 30 38 35 38 42 40 34 36 41 37 26 35 39
103 102 94 89 85 77 73 67 65 50 49 40 33 33 31 24 25 21 16 15 17 18 19 16 15 18 15 15 14 19 30 37 36 39 38 39 42 42 38 39 34 37 49 49
107 105 97 95 83 82 72 63 56 53 46 44 38 40 32 29 27 26 24 19 18 19 20 23 20 20 20 17 15 12 15 18 28 39 43 40 43 44 41 44 44 49 55 61
92 87 83 79 77 82 76 65 56 54 48 44 47 43 37 32 27 29 28 28 23 24 22 22 27 27 24 20 16 16 17 18 20 23 27 30 32 41 43 44 51 57 60 64
81 75 73 73 71 73 63 55 61 55 49 44 49 45 44 37 34 28 30 27 27 26 24 23 25 30 32 32 27 22 18 21 22 24 25 29 33 38 44 47 54 63 68 71
69 69 67 60 64 63 56 55 59 55 47 46 49 47 47 42 39 34 28 31 31 32 31 27 30 29 32 36 37 34 31 29 29 27 26 29 32 33 36 38 42 44 48 53
63 61 62 59 63 64 48 60 57 54 51 48 45 47 47 42 40 39 36 30 36 36 34 33 31 34 32 33 38 39 39 38 37 40 39 39 40 42 42 43 45 47 50 53
64 65 63 59 63 55 63 60 58 58 55 48 46 47 46 46 43 41 42 40 38 39 38 38 35 36 35 35 39 41 39 41 42 43 47 45 47 49 49 51 53 55 57 58
66 54 55 57 64 60 63 61 61 62 55 51 51 49 50 51 45 42 43 43 41 43 42 42 42 43 42 44 45 46 47 48 48 51 49 51 53 56 58 58 61 62 64 66
60 53 58 59 67 67 68 65 66 66 52 56 56 58 62 53 50 47 43 44 46 50 48 48 49 48 47 50 52 51 53 54 53 56 54 57 58 60 62 64 66 67 70 72
58 57 62 69 72 73 71 65 65 62 65 64 64 63 58 53 51 49 49 50 52 55 55 54 54 54 54 55 56 57 58 59 59 61 60 61 63 65 67 70 73 75 76 77
68 69 69 74 73 78 74 72 66 63 60 65 63 62 58 52 44 49 51 53 55 56 56 57 57 57 58 61 62 61 64 65 65 64 65 67 67 70 75 76 78 81 82 84
65 62 62 72 76 81 74 72 69 67 67 65 62 63 62 61 60 58 57 60 59 57 57 59 60 63 64 64 66 66 68 69 69 67 69 72 72 75 78 81 84 86 88 89
66 63 67 71 74 81 77 74 71 66 61 63 66 66 67 68 71 69 66 68 62 63 65 68 68 68 69 67 68 69 70 72 73 72 74 76 78 80 82 85 88 90 92 94
63 63 68 72 78 81 82 77 77 71 70 68 67 69 69 68 67 66 65 66 66 68 71 71 72 73 70 70 74 73 72 73 75 76 78 80 82 85 88 90 94 95 96 100
Wind_Direction
275 278 284 291 296 308 316 310 315 325 330 338 337 346 308 239 231 242 251 259 257 274 278 276 247 219 220 228 227 220 220 221 226 229 233 240 244 246 248 254 257 256 261 266
279 261 277 285 298 305 312 302 309 317 320 335 332 341 326 265 247 250 251 247 268 283 269 257 239 220 221 225 224 219 218 222 224 229 234 239 242 247 249 252 257 262 264 267
269 259 269 277 294 298 306 301 307 304 314 324 328 337 340 311 260 255 255 261 271 269 252 228 214 215 216 217 215 224 226 223 223 227 233 236 241 248 255 256 259 261 266 266
268 257 259 278 283 292 306 301 294 298 311 318 329 333 331 331 297 248 252 248 252 254 253 222 223 205 205 215 218 227 232 230 236 238 241 241 246 248 254 256 258 260 265 268
260 256 257 266 276 292 297 302 288 295 300 308 331 332 339 331 315 294 252 241 238 253 235 218 221 219 197 217 224 227 230 233 237 240 244 247 248 248 254 258 261 268 272 272
257 250 251 255 278 289 290 291 301 285 290 301 319 323 338 339 328 286 297 258 244 244 249 228 229 227 229 217 212 232 239 249 247 248 250 252 253 257 261 265 266 268 273 278
248 245 249 264 275 280 288 289 296 280 283 287 306 318 320 358 354 313 295 282 244 249 256 254 253 244 240 235 229 228 243 245 246 248 247 255 258 261 263 268 271 274 276 280
249 249 252 258 268 276 282 286 290 273 276 273 294 306 309 330 10 10 316 303 294 262 249 257 248 255 250 250 241 238 246 249 251 254 254 258 264 269 276 278 278 280 283 285
244 254 258 263 268 275 278 285 281 280 264 264 277 294 303 296 351 20 18 3 303 285 287 270 261 253 254 254 254 255 257 259 261 259 262 265 267 271 276 279 284 285 283 283
254 255 257 261 265 272 277 278 282 273 256 258 262 278 286 294 303 343 15 26 8 344 320 323 312 284 256 250 254 251 254 260 268 264 264 268 269 270 275 277 281 284 285 301
254 257 260 262 269 270 271 274 273 249 248 252 255 272 280 274 283 293 325 335 350 30 34 356 332 333 294 250 244 256 261 259 263 266 269 271 271 271 270 274 278 286 287 310
257 257 254 259 262 264 268 271 269 254 248 247 250 258 270 270 277 285 297 313 326 340 15 17 7 340 337 308 255 246 251 260 261 262 268 268 262 258 262 273 266 260 262 247
253 254 258 260 261 265 266 270 272 250 243 244 243 255 252 273 275 285 291 307 314 319 331 354 9 11 359 333 317 279 259 254 262 268 269 270 269 270 271 261 264 256 252 255
250 252 255 256 258 256 254 256 259 231 236 242 238 242 247 258 267 279 284 292 301 302 315 328 339 349 5 353 326 305 311 290 268 263 263 268 267 266 263 259 253 250 253 254
248 249 249 249 251 252 252 255 240 224 229 237 239 241 244 251 263 270 282 285 288 298 303 316 321 322 333 346 345 312 300 295 294 281 271 269 270 267 262 258 254 256 256 259
240 241 242 243 246 249 249 231 220 216 226 234 241 243 247 246 248 264 280 283 289 292 301 302 311 309 318 323 332 342 321 297 292 291 288 286 281 283 278 273 268 264 263 265
234 234 237 237 240 236 230 218 217 218 224 236 239 245 250 254 259 253 263 278 284 291 298 296 302 300 310 319 322 329 330 330 326 310 309 311 311 301 294 293 294 286 283 284
228 226 230 228 232 229 213 210 214 219 224 231 236 242 250 253 256 259 257 267 278 285 289 290 296 299 299 310 319 322 324 322 321 322 318 316 315 314 311 309 306 305 306 307
228 221 222 221 223 216 205 207 216 220 220 222 234 239 247 252 255 259 263 265 275 283 288 291 292 294 287 298 308 312 314 313 316 311 317 311 309 311 315 315 311 310 309 310
227 218 222 217 214 205 202 210 217 219 217 220 230 238 245 251 256 264 265 266 275 278 282 287 291 297 293 300 305 306 308 311 313 316 311 308 307 309 311 315 314 311 309 309
219 217 219 213 205 202 203 209 218 220 220 227 227 233 242 248 256 259 264 266 270 275 279 283 289 293 291 297 300 302 305 309 311 314 307 308 308 308 311 314 313 311 310 311
214 213 215 207 201 200 201 209 216 220 221 227 232 234 237 246 252 255 261 262 266 272 277 283 287 291 293 295 298 299 303 306 309 312 311 307 307 308 310 311 313 313 313 311
213 213 209 204 200 200 204 209 217 218 225 231 236 233 234 235 240 249 256 261 265 270 276 281 285 290 293 295 297 298 301 305 309 308 309 307 307 309 311 311 311 312 313 312
215 212 210 206 202 201 207 209 216 220 224 227 229 235 239 239 244 247 253 257 265 273 277 280 285 289 293 294 297 298 299 302 305 303 306 306 307 309 310 309 309 310 311 311
213 212 207 205 208 203 209 209 215 219 222 230 236 240 245 248 252 254 261 264 268 273 275 279 283 288 290 292 295 298 297 301 303 302 302 304 306 306 307 308 309 310 311 311
214 212 206 204 209 208 211 214 217 222 229 234 239 244 246 248 252 255 258 262 268 275 277 278 283 287 290 292 295 295 296 298 299 300 300 301 302 304 306 307 309 310 309 310
Height
10665 10661 10662 10664 10662 10661 10660 10658 10656 10652 10648 10645 10635 10630 10625 10621 10620 10618 10619 10620 10623 10622 10615 10613 10613 10622 10628 10634 10644 10649 10654 10657 10660 10665 10668 10671 10671 10673 10673 10673 10674 10675 10676 10677
10656 10650 10655 10655 10654 10654 10654 10654 10651 10649 10647 10643 10639 10630 10622 10617 10616 10613 10612 10615 10616 10617 10612 10608 10607 10611 10616 10626 10637 10643 10650 10654 10659 10662 10662 10663 10664 10664 10665 10665 10665 10665 10666 10666
10647 10641 10648 10645 10646 10646 10646 10648 10646 10646 10644 10639 10634 10628 10622 10616 10613 10608 10607 10608 10610 10610 10609 10608 10607 10608 10613 10621 10631 10637 10642 10646 10648 10650 10653 10655 10656 10657 10658 10659 10658 10658 10657 10656
10640 10632 10636 10639 10637 10639 10639 10640 10641 10641 10641 10637 10633 10625 10618 10615 10611 10606 10603 10604 10603 10606 10606 10606 10607 10608 10612 10615 10620 10625 10630 10635 10638 10641 10642 10645 10647 10649 10651 10650 10650 10649 10648 10646
10628 10622 10626 10629 10626 10631 10631 10634 10635 10635 10636 10634 10630 10624 10618 10610 10606 10603 10601 10597 10598 10600 10602 10603 10606 10609 10609 10612 10615 10618 10621 10625 10628 10631 10633 10636 10638 10642 10642 10642 10641 10640 10640 10639
10614 10609 10616 10613 10618 10621 10621 10628 10629 10630 10630 10630 10629 10624 10619 10610 10604 10601 10598 10598 10596 10596 10599 10601 10602 10604 10605 10608 10610 10613 10617 10620 10622 10625 10626 10627 10629 10631 10632 10633 10630 10628 10628 10625
10597 10597 10602 10606 10607 10610 10613 10618 10622 10624 10626 10625 10625 10623 10619 10613 10601 10596 10595 10595 10594 10593 10594 10597 10599 10599 10600 10601 10604 10607 10610 10612 10614 10617 10618 10619 10618 10618 10619 10620 10621 10619 10618 10615
10587 10588 10591 10591 10597 10600 10607 10610 10613 10614 10621 10620 10622 10619 10618 10615 10609 10602 10594 10593 10593 10592 10592 10591 10593 10593 10594 10596 10599 10601 10603 10605 10606 10606 10608 10610 10610 10610 10607 10606 10610 10610 10608 10603
10570 10580 10573 10578 10584 10592 10597 10603 10601 10609 10613 10612 10616 10616 10613 10613 10611 10605 10598 10593 10592 10590 10588 10586 10583 10586 10586 10590 10592 10594 10595 10596 10600 10601 10600 10601 10602 10600 10599 10599 10600 10598 10593 10590
10553 10561 10560 10564 10571 10581 10586 10587 10593 10599 10602 10604 10608 10611 10608 10606 10605 10605 10603 10600 10596 10590 10588 10584 10578 10576 10577 10581 10584 10586 10589 10590 10589 10588 10591 10592 10591 10593 10592 10591 10587 10582 10583 10578
10531 10542 10548 10548 10562 10568 10572 10578 10583 10586 10592 10595 10599 10603 10604 10603 10601 10600 10599 10598 10595 10594 10590 10585 10577 10571 10570 10573 10577 10578 10580 10581 10581 10581 10579 10579 10580 10584 10583 10581 10577 10576 10574 10569
10515 10517 10528 10541 10545 10554 10559 10567 10573 10580 10582 10585 10590 10593 10595 10597 10596 10595 10593 10591 10590 10589 10590 10587 10579 10572 10567 10567 10569 10571 10576 10575 10573 10574 10572 10571 10571 10575 10576 10571 10569 10568 10566 10560
10494 10503 10517 10526 10534 10543 10550 10551 10557 10565 10567 10577 10580 10581 10586 10588 10589 10589 10589 10587 10584 10581 10581 10582 10579 10576 10572 10568 10565 10563 10565 10567 10563 10562 10565 10563 10561 10562 10562 10561 10559 10555 10551 10546
10463 10479 10499 10518 10522 10516 10526 10533 10541 10548 10555 10565 10570 10568 10576 10578 10580 10582 10581 10580 10581 10578 10574 10571 10573 10571 10569 10566 10562 10560 10558 10555 10554 10553 10553 10552 10550 10549 10550 10550 10547 10544 10536 10530
10441 10460 10477 10491 10495 10495 10507 10518 10525 10534 10544 10551 10554 10558 10565 10568 10571 10573 10573 10572 10573 10571 10571 10567 10564 10563 10565 10564 10560 10556 10554 10550 10547 10545 10543 10541 10537 10535 10535 10533 10530 10526 10523 10518
10420 10440 10451 10464 10474 10478 10490 10500 10510 10519 10530 10539 10543 10550 10551 10557 10561 10564 10565 10563 10560 10561 10563 10560 10559 10554 10554 10554 10554 10551 10548 10546 10544 10539 10534 10530 10529 10526 10522 10519 10515 10513 10507 10502
10402 10418 10432 10453 10455 10461 10476 10496 10502 10511 10519 10528 10534 10539 10539 10545 10549 10552 10554 10555 10552 10551 10550 10550 10548 10548 10541 10540 10539 10538 10535 10533 10531 10530 10528 10523 10518 10513 10509 10504 10499 10495 10490 10485
10384 10401 10414 10432 10433 10441 10479 10478 10489 10497 10506 10515 10523 10526 10529 10534 10536 10541 10544 10544 10542 10542 10543 10541 10540 10538 10536 10531 10526 10524 10522 10520 10518 10514 10510 10506 10502 10498 10494 10489 10485 10480 10474 10467
10371 10382 10396 10411 10421 10444 10458 10470 10477 10484 10493 10501 10511 10515 10517 10521 10525 10530 10533 10534 10532 10531 10530 10531 10531 10529 10527 10524 10521 10518 10513 10509 10506 10502 10498 10493 10488 10482 10478 10474 10469 10463 10456 10450
10358 10375 10387 10401 10410 10432 10452 10458 10464 10468 10481 10488 10495 10501 10504 10508 10515 10518 10520 10522 10521 10519 10520 10518 10518 10516 10513 10511 10509 10506 10503 10499 10495 10491 10486 10481 10475 10469 10464 10459 10453 10446 10438 10431
10351 10364 10374 10390 10402 10423 10433 10443 10447 10457 10477 10475 10479 10484 10487 10498 10504 10506 10509 10510 10510 10507 10507 10506 10506 10504 10501 10498 10495 10492 10488 10484 10481 10477 10471 10466 10460 10454 10449 10442 10435 10429 10422 10413
10342 10351 10363 10377 10393 10410 10422 10430 10436 10450 10455 10459 10464 10473 10479 10487 10492 10493 10493 10495 10496 10496 10495 10495 10493 10490 10487 10484 10481 10478 10474 10469 10465 10460 10455 10449 10443 10437 10431 10423 10416 10408 10400 10391
10326 10336 10349 10367 10384 10395 10407 10418 10425 10436 10447 10451 10456 10463 10468 10472 10475 10477 10478 10480 10482 10485 10484 10482 10480 10477 10474 10469 10464 10462 10457 10452 10447 10443 10438 10431 10425 10419 10411 10403 10395 10386 10378 10369
10315 10330 10347 10364 10373 10384 10398 10410 10414 10425 10432 10437 10443 10451 10457 10461 10463 10463 10465 10467 10470 10470 10469 10469 10467 10464 10460 10456 10450 10445 10442 10436 10431 10425 10420 10413 10406 10399 10391 10383 10375 10365 10355 10345
10302 10319 10336 10354 10366 10378 10385 10395 10402 10412 10418 10424 10432 10438 10443 10447 10450 10452 10453 10455 10456 10456 10455 10453 10451 10449 10447 10445 10441 10435 10427 10419 10412 10406 10401 10395 10388 10381 10373 10365 10356 10345 10334 10322
10301 10313 10326 10339 10349 10366 10374 10383 10391 10403 10409 10415 10419 10424 10431 10433 10435 10438 10439 10440 10441 10441 10439 10435 10433 10431 10430 10427 10422 10418 10412 10405 10397 10389 10384 10378 10370 10362 10354 10344 10334 10324 10313 10302